Weather History for KMKC - March, 2014

Change the Weather History Date:

Friday, March 7, 2014

  Actual Average Record
Temperature  
Mean Temperature 50 °F -  
Max Temperature 64 °F 47 °F 73 °F (2009)
Min Temperature 35 °F 28 °F 15 °F (2008)
Degree Days  
Heating Degree Days 15    
Moisture  
Dew Point 32 °F    
Average Humidity 60    
Maximum Humidity 77    
Minimum Humidity 27    
Precipitation  
Precipitation 0.00 in - - ()
Sea Level Pressure  
Sea Level Pressure 29.92 in    
Wind  
Wind Speed 9 mph (SSW)    
Max Wind Speed 21 mph    
Max Gust Speed 30 mph    
Visibility 8 miles    
Events      
Averages and records for this station are not official NWS values.
T = Trace of Precipitation, MM = Missing Value Source: NWS Daily Summary

Daily Weather History Graph

Daily Weather History Graph

Search for Another Location

Airport or City:

Trip Planner

Search our weather history database for the weather conditions in past years. The results will help you decide how hot, cold, wet, or windy it might be!

Date:

Astronomy

Mar. 07, 2014 Rise Set
Actual Time 6:42 AM CST 6:17 PM CST
Civil Twilight 6:15 AM CST 6:44 PM CST
Nautical Twilight 5:44 AM CST 7:14 PM CST
Astronomical Twilight 5:13 AM CST 7:46 PM CST
Moon 10:38 AM CST (3/7) 12:20 AM CST (3/7)
Length of Visible Light 12h 28m
Length of Day
11h 35m
Waxing Crescent, 42% of the Moon is Illuminated
Mar 7
Waxing Crescent
Mar 8
First Quarter
Mar 16
Full
Mar 23
Last Quarter
Mar 30
New

Hourly Weather History & Observations

Time (CST) Temp. Windchill Dew Point Humidity Pressure Visibility Wind Dir Wind Speed Gust Speed Precip Events Conditions
12:54 AM 39.9 °F 34.5 °F 30.0 °F 68% 29.96 in 7.0 mi SSW 8.1 mph - N/A   Clear
1:54 AM 39.9 °F 34.5 °F 30.0 °F 68% 29.93 in 8.0 mi South 8.1 mph - N/A   Clear
2:54 AM 37.0 °F - 28.9 °F 73% 29.92 in 7.0 mi Calm Calm - N/A   Clear
3:54 AM 37.9 °F 32.7 °F 30.0 °F 73% 29.92 in 8.0 mi SSW 6.9 mph - N/A   Clear
4:54 AM 36.0 °F 31.1 °F 28.9 °F 76% 29.91 in 7.0 mi SSW 5.8 mph - N/A   Clear
5:54 AM 37.9 °F 31.5 °F 28.9 °F 70% 29.91 in 7.0 mi SSW 9.2 mph - N/A   Clear
6:54 AM 37.0 °F 31.6 °F 30.0 °F 76% 29.90 in 6.0 mi South 6.9 mph - N/A   Haze
7:54 AM 39.9 °F 36.7 °F 30.9 °F 70% 29.91 in 7.0 mi SSW 4.6 mph - N/A   Clear
8:54 AM 46.0 °F 41.4 °F 34.0 °F 63% 29.91 in 9.0 mi SSW 9.2 mph - N/A   Clear
9:54 AM 51.1 °F - 34.0 °F 52% 29.89 in 10.0 mi SSW 20.7 mph 24.2 mph N/A   Clear
10:54 AM 54.0 °F - 33.1 °F 45% 29.89 in 10.0 mi SSW 10.4 mph - N/A   Clear
11:54 AM 57.0 °F - 33.1 °F 40% 29.88 in 10.0 mi South 12.7 mph - N/A   Clear
12:54 PM 59.0 °F - 34.0 °F 39% 29.86 in 10.0 mi South 10.4 mph - N/A   Clear
1:54 PM 60.1 °F - 33.1 °F 36% 29.83 in 10.0 mi ESE 8.1 mph - N/A   Clear
2:54 PM 64.0 °F - 28.9 °F 27% 29.82 in 10.0 mi WSW 8.1 mph - N/A   Clear
3:54 PM 63.0 °F - 30.9 °F 30% 29.83 in 10.0 mi South 3.5 mph - N/A   Clear
4:54 PM 62.1 °F - 30.0 °F 30% 29.82 in 10.0 mi South 3.5 mph - N/A   Clear
5:54 PM 57.0 °F - 35.1 °F 44% 29.85 in 10.0 mi North 12.7 mph - N/A   Mostly Cloudy
6:54 PM 50.0 °F - 37.0 °F 61% 29.91 in 9.0 mi North 10.4 mph - N/A   Partly Cloudy
7:54 PM 46.9 °F - 36.0 °F 66% 29.95 in 8.0 mi North 12.7 mph - N/A   Clear
8:40 PM 41.0 °F 32.5 °F 34.0 °F 76% 29.98 in 5.0 mi NNE 17.3 mph 25.3 mph N/A   Haze
8:54 PM 39.9 °F 30.2 °F 33.1 °F 77% 30.00 in 5.0 mi NNE 20.7 mph 29.9 mph N/A   Haze
9:36 PM 39.0 °F 30.3 °F 32.0 °F 76% 30.02 in 5.0 mi North 16.1 mph - N/A   Haze
9:54 PM 37.9 °F 29.2 °F 30.9 °F 76% 30.04 in 5.0 mi North 15.0 mph - N/A   Haze
10:54 PM 36.0 °F 27.1 °F 28.9 °F 76% 30.06 in 5.0 mi North 13.8 mph - N/A   Haze
11:54 PM 35.1 °F 26.4 °F 28.0 °F 76% 30.08 in 7.0 mi North 12.7 mph - N/A   Overcast